GW5892 Weather Reports


time (UTC)temp
F
wind
direction
speed
knots
gust
knots
rain 1hr
in
rain 24hr
in
rain mn
in
humidity
%
barometer
mb
20260507161006 66 47 4.3 7.0 0.00 0.00 0.00 85 1016.7
20260507160508 66 31 4.3 6.1 0.00 0.00 0.00 85 1016.5
20260507155508 66 32 4.3 7.0 0.00 0.00 0.00 85 1016.3
20260507155007 66 11 4.3 7.0 0.00 0.00 0.00 85 1016.3
20260507154524 66 44 5.2 7.0 0.00 0.00 0.00 85 1016.3
20260507154011 66 32 6.1 7.0 0.00 0.00 0.00 85 1016.2
20260507153505 66 41 5.2 7.0 0.00 0.00 0.00 85 1016.2
20260507153014 66 32 5.2 7.0 0.00 0.00 0.00 85 1016.2
20260507152504 66 36 5.2 7.0 0.00 0.00 0.00 85 1016.1
20260507152007 66 38 6.1 7.0 0.00 0.00 0.00 85 1016.1
20260507151007 66 37 4.3 7.0 0.00 0.00 0.00 84 1016.1
20260507150511 66 35 5.2 7.0 0.00 0.00 0.00 84 1016.1
20260507145513 66 34 6.1 7.8 0.00 0.00 0.00 85 1016.1
20260507145007 66 25 6.1 7.8 0.00 0.00 0.00 85 1016.0
20260507144536 66 19 4.3 6.1 0.00 0.00 0.00 85 1016.0
20260507144009 66 27 4.3 6.1 0.00 0.00 0.00 85 1016.0
20260507143506 66 72 2.6 6.1 0.00 0.00 0.00 85 1016.0
20260507143026 66 35 4.3 6.1 0.00 0.00 0.00 85 1016.0
20260507142509 67 23 4.3 6.1 0.00 0.00 0.00 85 1015.9
20260507142012 67 36 4.3 6.1 0.00 0.00 0.00 85 1016.0
20260507141517 67 41 4.3 6.1 0.00 0.00 0.00 85 1016.0
20260507141008 67 18 4.3 7.8 0.00 0.00 0.00 85 1016.1
20260507140508 67 26 5.2 7.8 0.00 0.00 0.00 85 1016.1
20260507140019 67 32 6.1 7.8 0.00 0.00 0.00 85 1016.1
20260507135505 67 25 5.2 7.8 0.00 0.00 0.00 85 1016.1
20260507135006 67 12 4.3 7.0 0.00 0.00 0.00 85 1016.0
20260507134522 67 40 5.2 7.0 0.00 0.00 0.00 85 1015.9
20260507134010 67 56 3.5 7.0 0.00 0.00 0.00 85 1015.8
20260507133507 67 34 4.3 7.0 0.00 0.00 0.00 85 1015.7
20260507133026 67 31 5.2 7.0 0.00 0.00 0.00 85 1015.8
20260507132510 67 35 4.3 6.1 0.00 0.00 0.00 85 1015.8
20260507132011 67 32 4.3 6.1 0.00 0.00 0.00 85 1015.8
20260507131514 67 33 4.3 6.1 0.00 0.00 0.00 85 1015.9
20260507131009 67 42 3.5 7.0 0.00 0.00 0.00 85 1016.0
20260507130508 67 23 4.3 7.0 0.00 0.00 0.00 85 1016.1
20260507130018 67 37 3.5 5.2 0.00 0.00 0.00 85 1016.0
20260507124003 68 33 4.3 5.2 0.00 0.00 0.00 84 1016.2
20260507123503 68 11 3.5 7.0 0.00 0.00 0.00 84 1016.1
20260507123009 68 80 4.3 7.0 0.00 0.00 0.00 84 1016.2
20260507122504 68 356 4.3 6.1 0.00 0.00 0.00 84 1016.2
20260507122006 68 47 3.5 7.0 0.00 0.00 0.00 84 1016.3
20260507121007 68 1 4.3 6.1 0.00 0.00 0.00 84 1016.3
20260507120505 68 32 3.5 4.3 0.00 0.00 0.00 84 1016.4
20260507115506 68 37 3.5 6.1 0.00 0.00 0.00 84 1016.5
20260507115010 68 33 4.3 6.1 0.00 0.00 0.00 84 1016.6
20260507114521 68 51 3.5 5.2 0.00 0.00 0.00 84 1016.6
20260507114003 68 48 2.6 4.3 0.00 0.00 0.00 84 1016.6
20260507113502 69 4 1.7 4.3 0.00 0.00 0.00 84 1016.7
20260507112506 69 27 2.6 3.5 0.00 0.00 0.00 84 1016.8
20260507112004 69 39 1.7 4.3 0.00 0.00 0.00 84 1016.8
20260507111513 69 39 1.7 4.3 0.00 0.00 0.00 84 1016.8
20260507111004 69 19 2.6 4.3 0.00 0.00 0.00 84 1016.9
20260507110503 69 56 2.6 4.3 0.00 0.00 0.00 84 1016.9
20260507110018 70 53 0.9 1.7 0.00 0.00 0.00 83 1017.0
20260507105505 70 51 0.9 2.6 0.00 0.00 0.00 83 1017.0
20260507105006 70 36 0.9 3.5 0.00 0.00 0.00 82 1017.1
20260507104521 70 70 0.9 3.5 0.00 0.00 0.00 82 1017.1
20260507104009 70 27 0.9 3.5 0.00 0.00 0.00 82 1017.2
20260507103508 71 50 0.0 2.6 0.00 0.00 0.00 81 1017.2
20260507103005 71 23 0.9 2.6 0.00 0.00 0.00 81 1017.2
20260507102503 71 38 0.0 0.0 0.00 0.00 0.00 81 1017.3
20260507102006 71 29 0.0 1.7 0.00 0.00 0.00 81 1017.3
20260507101507 71 30 0.0 1.7 0.00 0.00 0.00 81 1017.3
20260507101004 71 40 0.9 1.7 0.00 0.00 0.00 80 1017.3
20260507100507 72 48 0.0 1.7 0.00 0.00 0.00 80 1017.3
20260507100019 72 50 0.9 1.7 0.00 0.00 0.00 79 1017.3
20260507095505 72 60 0.0 0.0 0.00 0.00 0.00 79 1017.3
20260507095008 72 50 0.0 0.0 0.00 0.00 0.00 78 1017.4
20260507094524 72 56 0.0 2.6 0.00 0.00 0.00 78 1017.4
20260507094007 73 67 0.0 3.5 0.00 0.00 0.00 77 1017.4
20260507093507 73 34 2.6 3.5 0.00 0.00 0.00 77 1017.3
20260507093024 73 31 1.7 3.5 0.00 0.00 0.00 77 1017.3
20260507092508 73 15 1.7 2.6 0.00 0.00 0.00 76 1017.3
20260507092006 73 14 0.0 0.0 0.00 0.00 0.00 75 1017.3
20260507091506 74 30 0.0 0.0 0.00 0.00 0.00 75 1017.3
20260507091003 74 353 0.0 0.0 0.00 0.00 0.00 74 1017.3
20260507090504 74 287 0.0 0.0 0.00 0.00 0.00 74 1017.4
20260507090017 74 285 0.0 0.0 0.00 0.00 0.00 74 1017.5
20260507085505 74 285 0.0 0.0 0.00 0.00 0.00 74 1017.5
20260507085004 74 300 0.0 0.0 0.00 0.00 0.00 74 1017.5
20260507084522 74 302 0.0 0.0 0.00 0.00 0.00 74 1017.5
20260507084007 74 326 0.0 0.0 0.00 0.00 0.00 74 1017.5
20260507083506 74 273 0.0 0.0 0.00 0.00 0.00 74 1017.5
20260507083020 75 278 0.0 0.0 0.00 0.00 0.00 74 1017.6
20260507082010 74 277 0.0 0.0 0.00 0.00 0.00 73 1017.5
20260507081526 74 297 0.0 1.7 0.00 0.00 0.00 73 1017.5
20260507081006 75 270 0.0 3.5 0.00 0.00 0.00 73 1017.5
20260507080506 75 269 0.9 3.5 0.00 0.00 0.00 73 1017.4
20260507075504 75 307 0.0 0.0 0.00 0.00 0.00 72 1017.4
20260507075004 75 255 0.0 0.0 0.00 0.00 0.00 71 1017.4
20260507074007 75 301 0.0 3.5 0.00 0.00 0.00 70 1017.2
20260507073507 75 276 0.0 3.5 0.00 0.00 0.00 70 1017.2
20260507073019 75 256 0.0 2.6 0.00 0.00 0.00 70 1017.1
20260507072506 75 314 0.0 0.0 0.00 0.00 0.00 70 1017.1
20260507072008 75 292 0.0 0.0 0.00 0.00 0.00 69 1017.1
20260507071519 75 309 0.0 0.0 0.00 0.00 0.00 69 1017.0
20260507071010 75 288 0.0 0.0 0.00 0.00 0.00 70 1017.0
20260507070510 75 306 0.0 0.0 0.00 0.00 0.00 69 1016.8
20260507070026 75 304 0.0 0.0 0.00 0.00 0.00 71 1016.8
20260507065503 75 359 0.0 0.0 0.00 0.00 0.00 70 1016.7
20260507065004 75 288 0.0 0.0 0.00 0.00 0.00 71 1016.6
20260507064512 75 308 0.0 0.0 0.00 0.00 0.00 71 1016.5
20260507064005 76 297 0.0 0.0 0.00 0.00 0.00 71 1016.5
20260507063505 76 279 0.0 0.0 0.00 0.00 0.00 70 1016.4
20260507062506 76 265 0.0 0.0 0.00 0.00 0.00 72 1016.2
20260507062007 76 22 0.0 0.0 0.00 0.00 0.00 73 1016.2
20260507061521 75 22 0.0 0.0 0.00 0.00 0.00 73 1016.1
20260507061009 75 22 0.0 0.0 0.00 0.00 0.00 72 1016.0
20260507060507 76 13 0.0 0.0 0.00 0.00 0.00 71 1016.0
20260507060033 75 13 0.0 0.0 0.00 0.00 0.00 73 1015.9
20260507055510 75 27 0.0 0.0 0.00 0.00 0.00 73 1015.8
20260507055008 76 36 0.0 0.0 0.00 0.00 0.00 71 1015.9
20260507054508 75 2 0.0 0.0 0.00 0.00 0.00 71 1015.8
20260507054004 75 34 0.0 0.0 0.00 0.00 0.00 70 1015.7
20260507053505 75 28 0.0 0.0 0.00 0.00 0.00 70 1015.7
20260507053017 76 18 0.0 1.7 0.00 0.00 0.00 71 1015.6
20260507052506 76 7 0.0 2.6 0.00 0.00 0.00 71 1015.5
20260507052010 75 21 0.9 3.5 0.00 0.00 0.00 71 1015.4
20260507051520 76 36 1.7 3.5 0.00 0.00 0.00 71 1015.3
20260507051008 76 60 2.6 3.5 0.00 0.00 0.00 70 1015.3
20260507050505 76 63 2.6 3.5 0.00 0.00 0.00 69 1015.3
20260507050024 78 85 1.7 2.6 0.00 0.00 0.00 67 1015.2
20260507045506 78 84 0.9 3.5 0.00 0.00 0.00 68 1015.2
20260507045006 77 102 0.9 3.5 0.00 0.00 0.00 68 1015.2
20260507044544 78 104 1.7 3.5 0.00 0.00 0.00 68 1015.1
20260507044010 78 102 2.6 4.3 0.00 0.00 0.00 67 1015.0
20260507043502 78 106 2.6 5.2 0.00 0.00 0.00 67 1014.9
20260507043012 78 94 2.6 5.2 0.00 0.00 0.00 67 1014.7
20260507042504 79 106 1.7 6.1 0.00 0.00 0.00 66 1014.6
20260507042010 78 95 3.5 6.1 0.00 0.00 0.00 67 1014.6
20260507041517 79 110 3.5 6.1 0.00 0.00 0.00 67 1014.6
20260507041005 79 120 3.5 6.1 0.00 0.00 0.00 67 1014.5
20260507040506 79 103 2.6 6.1 0.00 0.00 0.00 67 1014.5
20260507040031 79 103 3.5 5.2 0.00 0.00 0.00 67 1014.4
20260507035507 79 93 3.5 6.1 0.00 0.00 0.00 67 1014.4
20260507034523 80 127 2.6 6.1 0.00 0.00 0.00 67 1014.3
20260507034007 80 123 1.7 6.1 0.00 0.00 0.00 67 1014.2
20260507033508 80 121 3.5 6.1 0.00 0.00 0.00 65 1014.2
20260507033024 81 131 3.5 6.1 0.00 0.00 0.00 63 1014.2
20260507032511 83 82 3.5 6.1 0.00 0.00 0.00 60 1014.1
20260507032005 83 124 3.5 6.1 0.00 0.00 0.00 60 1014.1
20260507031517 85 109 2.6 7.0 0.00 0.00 0.00 60 1014.1
20260507031006 84 117 4.3 7.0 0.00 0.00 0.00 60 1014.0
20260507030509 82 133 3.5 7.0 0.00 0.00 0.00 63 1014.1
20260507025007 82 68 2.6 7.8 0.00 0.00 0.00 62 1014.1
20260507024010 82 113 3.5 9.6 0.00 0.00 0.00 61 1014.0
20260507023506 82 108 3.5 9.6 0.00 0.00 0.00 60 1013.9
20260507023028 82 98 4.3 8.7 0.00 0.00 0.00 61 1014.0
20260507022513 83 146 3.5 8.7 0.00 0.00 0.00 61 1014.1
20260507022015 82 116 3.5 7.8 0.00 0.00 0.00 62 1014.2
20260507021528 82 109 4.3 7.8 0.00 0.00 0.00 62 1014.2
20260507021009 82 101 5.2 7.0 0.00 0.00 0.00 61 1014.2
20260507020022 83 131 2.6 6.1 0.00 0.00 0.00 60 1014.3
20260507015506 84 115 3.5 7.8 0.00 0.00 0.00 59 1014.3
20260507015008 84 78 3.5 7.8 0.00 0.00 0.00 59 1014.3
20260507014006 84 104 2.6 7.8 0.00 0.00 0.00 58 1014.3
20260507012011 86 141 1.7 6.1 0.00 0.00 0.00 54 1014.4
20260507011524 85 173 2.6 6.1 0.00 0.00 0.00 55 1014.5
20260507011012 86 96 2.6 6.1 0.00 0.00 0.00 56 1014.5
20260507010509 86 132 1.7 6.1 0.00 0.00 0.00 55 1014.7
20260507010014 85 127 2.6 6.1 0.00 0.00 0.00 56 1014.8
20260507005503 85 157 3.5 6.1 0.00 0.00 0.00 58 1014.8
20260507005008 86 124 1.7 6.1 0.00 0.00 0.00 57 1015.0
20260507003028 85 167 1.7 6.1 0.00 0.00 0.00 60 1015.2
20260507002506 85 125 2.6 6.1 0.00 0.00 0.00 58 1015.3
20260507001520 85 208 2.6 5.2 0.00 0.00 0.00 58 1015.2
20260507001004 85 163 2.6 5.2 0.00 0.00 0.00 58 1015.3
20260507000504 86 86 1.7 4.3 0.00 0.00 0.00 57 1015.3
20260507000014 86 176 1.7 4.3 0.00 0.00 0.00 57 1015.3
20260506235504 86 186 1.7 4.3 0.00 0.00 0.00 55 1015.4
20260506235007 87 134 1.7 4.3 0.00 0.00 0.00 55 1015.4
20260506234005 87 136 2.6 7.0 0.00 0.00 0.00 56 1015.5
20260506233506 87 142 0.9 5.2 0.00 0.00 0.00 57 1015.4
20260506232008 85 151 1.7 5.2 0.00 0.00 0.00 56 1015.6
20260506231529 85 120 1.7 6.1 0.00 0.00 0.00 58 1015.6
20260506230502 85 146 1.7 6.1 0.00 0.00 0.00 59 1015.7
20260506230009 85 128 2.6 7.0 0.00 0.00 0.00 59 1015.7
20260506225503 86 157 3.5 7.0 0.00 0.00 0.00 59 1015.8
20260506224515 85 160 1.7 4.3 0.00 0.00 0.00 60 1015.8
20260506224006 85 131 2.6 5.2 0.00 0.00 0.00 58 1015.8
20260506223506 85 171 0.9 7.0 0.00 0.00 0.00 61 1015.8
20260506223019 84 194 3.5 7.0 0.00 0.00 0.00 60 1015.9
20260506222509 86 120 0.9 5.2 0.00 0.00 0.00 61 1015.8
20260506222008 86 105 1.7 7.0 0.00 0.00 0.00 60 1015.9
20260506221525 86 200 3.5 7.0 0.00 0.00 0.00 58 1015.9
20260506221010 85 158 2.6 6.1 0.00 0.00 0.00 59 1015.9
20260506220507 86 198 1.7 6.1 0.00 0.00 0.00 59 1015.9
20260506220026 85 165 0.9 7.0 0.00 0.00 0.00 61 1015.9
20260506215503 84 150 3.5 7.0 0.00 0.00 0.00 60 1015.9
20260506215003 84 163 1.7 7.0 0.00 0.00 0.00 63 1015.9
20260506214512 84 172 1.7 7.0 0.00 0.00 0.00 63 1016.0
20260506214010 84 202 2.6 6.1 0.00 0.00 0.00 59 1016.0
20260506213508 85 221 0.9 5.2 0.00 0.00 0.00 60 1016.0
20260506213018 84 179 1.7 7.0 0.00 0.00 0.00 61 1016.0
20260506212504 82 177 2.6 7.8 0.00 0.00 0.00 61 1016.0
20260506212011 82 224 4.3 7.8 0.00 0.00 0.00 61 1016.1
20260506211523 83 190 1.7 7.0 0.00 0.00 0.00 63 1016.0
20260506211003 83 276 1.7 7.0 0.00 0.00 0.00 62 1016.0
20260506210502 82 179 2.6 7.0 0.00 0.00 0.00 64 1016.0
20260506210025 82 209 1.7 7.0 0.00 0.00 0.00 64 1016.0
20260506205503 82 195 2.6 7.0 0.00 0.00 0.00 62 1016.0
20260506205014 83 213 1.7 7.8 0.00 0.00 0.00 64 1016.1
20260506204515 82 201 2.6 7.8 0.00 0.00 0.00 65 1016.1
20260506204005 82 223 2.6 7.8 0.00 0.00 0.00 67 1016.2
20260506203504 81 206 3.5 8.7 0.00 0.00 0.00 66 1016.2
20260506203016 81 192 4.3 7.8 0.00 0.00 0.00 64 1016.2
20260506202013 82 191 2.6 6.1 0.00 0.00 0.00 65 1016.1
20260506201520 81 146 3.5 6.1 0.00 0.00 0.00 65 1016.1
20260506201008 81 183 2.6 5.2 0.00 0.00 0.00 66 1016.1
20260506200510 81 166 3.5 5.2 0.00 0.00 0.00 65 1016.1
20260506195505 82 193 1.7 4.3 0.00 0.00 0.00 64 1016.0
20260506195002 81 188 2.6 4.3 0.00 0.00 0.00 65 1016.0
20260506194511 80 195 1.7 5.2 0.00 0.00 0.00 66 1016.0
20260506194005 79 259 1.7 5.2 0.00 0.00 0.00 69 1015.9
20260506193505 79 162 1.7 4.3 0.00 0.00 0.00 68 1015.9
20260506193015 79 211 1.7 3.5 0.00 0.00 0.00 69 1015.9
20260506192506 79 173 0.9 3.5 0.00 0.00 0.00 69 1015.9
20260506192006 79 210 1.7 3.5 0.00 0.00 0.00 69 1015.9
20260506191518 78 195 0.0 3.5 0.00 0.00 0.00 70 1015.8
20260506191006 78 211 0.9 2.6 0.00 0.00 0.00 70 1015.8
20260506190025 76 54 0.0 0.0 0.00 0.00 0.00 71 1015.7
20260506185506 75 113 0.0 0.0 0.00 0.00 0.00 71 1015.6
20260506185002 75 67 0.0 0.9 0.00 0.00 0.00 72 1015.6
20260506184508 74 53 0.0 0.9 0.00 0.00 0.00 72 1015.6
20260506184005 74 32 0.0 1.7 0.00 0.00 0.00 71 1015.6
20260506183505 74 74 0.9 3.5 0.00 0.00 0.00 73 1015.6
20260506183013 73 57 0.0 3.5 0.00 0.00 0.00 74 1015.6
20260506182505 72 34 1.7 4.3 0.00 0.00 0.00 73 1015.6
20260506181516 71 31 3.5 4.3 0.00 0.00 0.00 72 1015.7
20260506181008 71 18 3.5 5.2 0.00 0.00 0.00 73 1015.6
20260506180503 70 25 4.3 5.2 0.00 0.00 0.00 72 1015.5
20260506180004 70 23 4.3 6.1 0.00 0.00 0.00 72 1015.5
20260506175504 69 51 3.5 6.1 0.00 0.00 0.00 72 1015.4
20260506175002 69 18 5.2 6.1 0.00 0.00 0.00 72 1015.3
20260506173502 68 9 6.1 7.8 0.00 0.00 0.00 73 1015.3
20260506173013 68 15 5.2 7.0 0.00 0.00 0.00 73 1015.3
20260506172504 68 22 5.2 7.0 0.00 0.00 0.00 73 1015.2
20260506172008 67 20 6.1 7.0 0.00 0.00 0.00 73 1015.2
20260506171515 67 18 5.2 7.8 0.00 0.00 0.00 74 1015.2
20260506171006 67 30 6.1 7.8 0.00 0.00 0.00 75 1015.2
20260506170505 66 21 5.2 7.8 0.00 0.00 0.00 74 1015.1
20260506170018 66 27 7.0 7.8 0.00 0.00 0.00 75 1015.0
20260506165503 66 21 6.1 7.8 0.00 0.00 0.00 76 1015.0
20260506165003 66 22 5.2 7.0 0.00 0.00 0.00 75 1014.9
20260506164503 66 33 3.5 7.8 0.00 0.00 0.00 75 1014.8
20260506164006 66 25 6.1 7.8 0.00 0.00 0.00 75 1014.7
20260506163502 66 20 5.2 7.0 0.00 0.00 0.00 74 1014.7
20260506163010 66 47 4.3 7.0 0.00 0.00 0.00 73 1014.5
20260506162502 66 15 5.2 7.0 0.00 0.00 0.00 74 1014.5
20260506161512 66 20 3.5 7.8 0.00 0.00 0.00 73 1014.4